Alexandria, LA

1:46 PM CST on November 24, 2017 (GMT -0600)
Alexandria International

Weather History for KAEX - January, 2013

Change the Weather History Date:

Monday, January 28, 2013

  Actual Average Record
Temperature  
Mean Temperature 69 °F 49 °F  
Max Temperature 74 °F 60 °F 82 °F (1957)
Min Temperature 63 °F 38 °F 17 °F (1897)
Degree Days  
Heating Degree Days 0 16  
Month to date heating degree days 371 448  
Since 1 July heating degree days 1080 1237  
Cooling Degree Days 2    
Growing Degree Days 18 (Base 50)    
Moisture  
Dew Point 63 °F    
Average Humidity 81    
Maximum Humidity 93    
Minimum Humidity 68    
Precipitation  
Precipitation 0.00 in 0.20 in 3.47 in (1994)
Month to date precipitation 10.09 4.59  
Year to date precipitation 10.09 4.59  
Snow  
Snow 0.00 in - 1.50 in (2014)
Month to date snowfall 0.0  
Since 1 July snowfall 0.0  
Snow Depth 0.00 in    
Sea Level Pressure  
Sea Level Pressure 30.12 in    
Wind  
Wind Speed 9 mph (SSE)    
Max Wind Speed 16 mph    
Max Gust Speed 21 mph    
Visibility 10 miles    
Events      
T = Trace of Precipitation, MM = Missing Value Source: NWS Daily Summary

Daily Weather History Graph

Daily Weather History Graph

Search for Another Location

Airport or City:

Trip Planner

Search our weather history database for the weather conditions in past years. The results will help you decide how hot, cold, wet, or windy it might be!

Date:

Astronomy

Jan. 28, 2013 Rise Set
Actual Time 7:04 AM CST 5:41 PM CST
Civil Twilight 6:39 AM CST 6:07 PM CST
Nautical Twilight 6:10 AM CST 6:36 PM CST
Astronomical Twilight 5:41 AM CST 7:05 PM CST
Moon 7:26 PM CST (1/28) 7:39 AM CST (1/28)
Length of Visible Light 11h 28m
Length of Day
10h 37m
Full, 98% of the Moon is Illuminated
Jan 28
Full
Feb 3
Last Quarter
Feb 10
New
Feb 17
First Quarter
Feb 25
Full

Hourly Weather History & Observations

Time (CST) Temp. Dew Point Humidity Pressure Visibility Wind Dir Wind Speed Gust Speed Precip Events Conditions
12:53 AM 64.9 °F 61.0 °F 87% 30.16 in 10.0 mi SSE 8.1 mph - N/A   Overcast
1:17 AM 66.2 °F 60.8 °F 83% 30.14 in 10.0 mi SSE 9.2 mph - N/A   Overcast
1:53 AM 64.9 °F 61.0 °F 87% 30.15 in 10.0 mi SSE 10.4 mph - N/A   Overcast
2:30 AM 66.2 °F 60.8 °F 83% 30.14 in 10.0 mi South 9.2 mph - N/A   Overcast
2:53 AM 64.9 °F 61.0 °F 87% 30.15 in 10.0 mi SSE 8.1 mph - N/A   Overcast
3:53 AM 64.9 °F 61.0 °F 87% 30.15 in 10.0 mi SE 6.9 mph - N/A   Overcast
4:53 AM 64.0 °F 61.0 °F 90% 30.15 in 10.0 mi SE 6.9 mph - N/A   Overcast
5:53 AM 64.0 °F 61.0 °F 90% 30.16 in 10.0 mi ESE 6.9 mph - N/A   Overcast
6:37 AM 62.6 °F 60.8 °F 94% 30.16 in 10.0 mi ESE 9.2 mph - N/A   Overcast
6:53 AM 63.0 °F 61.0 °F 93% 30.18 in 10.0 mi SE 6.9 mph - N/A   Overcast
7:05 AM 62.6 °F 60.8 °F 94% 30.17 in 10.0 mi ESE 6.9 mph - N/A   Overcast
7:14 AM 62.6 °F 60.8 °F 94% 30.17 in 10.0 mi ESE 8.1 mph - N/A   Overcast
7:53 AM 64.0 °F 61.0 °F 90% 30.19 in 10.0 mi SE 8.1 mph - N/A   Overcast
8:53 AM 64.0 °F 62.1 °F 93% 30.19 in 10.0 mi SE 12.7 mph - N/A   Overcast
9:53 AM 66.0 °F 62.1 °F 87% 30.19 in 10.0 mi SE 12.7 mph - N/A   Overcast
10:53 AM 69.1 °F 63.0 °F 81% 30.19 in 10.0 mi SE 10.4 mph - N/A   Overcast
11:48 AM 71.6 °F 64.4 °F 78% 30.15 in 10.0 mi SE 8.1 mph - N/A   Overcast
11:53 AM 72.0 °F 64.9 °F 78% 30.16 in 10.0 mi SE 9.2 mph - N/A   Overcast
12:44 PM 73.4 °F 64.4 °F 73% 30.11 in 10.0 mi SSE 11.5 mph - N/A   Overcast
12:53 PM 73.0 °F 64.0 °F 73% 30.12 in 10.0 mi SSE 11.5 mph 19.6 mph N/A   Overcast
1:53 PM 73.9 °F 63.0 °F 68% 30.09 in 10.0 mi South 9.2 mph - N/A   Overcast
2:53 PM 73.0 °F 64.0 °F 73% 30.09 in 10.0 mi SSE 10.4 mph - N/A   Overcast
3:01 PM 73.4 °F 64.4 °F 73% 30.07 in 10.0 mi SSE 9.2 mph - N/A   Overcast
3:53 PM 73.0 °F 63.0 °F 71% 30.08 in 10.0 mi SSE 10.4 mph - N/A   Overcast
4:53 PM 73.0 °F 64.0 °F 73% 30.07 in 10.0 mi SSE 11.5 mph - N/A   Overcast
5:53 PM 70.0 °F 64.0 °F 81% 30.07 in 10.0 mi SSE 9.2 mph - N/A   Mostly Cloudy
6:53 PM 70.0 °F 64.0 °F 81% 30.07 in 10.0 mi SSE 9.2 mph - N/A   Scattered Clouds
7:00 PM 69.8 °F 64.4 °F 83% 30.06 in 10.0 mi SSE 8.1 mph - N/A   Mostly Cloudy
7:28 PM 69.8 °F 64.4 °F 83% 30.06 in 10.0 mi SSE 5.8 mph - N/A   Mostly Cloudy
7:53 PM 68.0 °F 64.0 °F 87% 30.07 in 10.0 mi SSE 6.9 mph - N/A   Clear
8:53 PM 68.0 °F 64.0 °F 87% 30.06 in 10.0 mi South 8.1 mph - N/A   Clear
9:51 PM 66.2 °F 64.4 °F 94% 30.05 in 10.0 mi South 8.1 mph - N/A   Mostly Cloudy
9:53 PM 66.9 °F 64.9 °F 93% 30.06 in 10.0 mi SSE 8.1 mph - N/A   Mostly Cloudy
10:53 PM 66.9 °F 64.0 °F 90% 30.06 in 10.0 mi South 8.1 mph - N/A   Mostly Cloudy
11:20 PM 66.2 °F 64.4 °F 94% 30.05 in 10.0 mi SSE 5.8 mph - N/A   Overcast
11:43 PM 64.4 °F 64.4 °F 100% 30.05 in 8.0 mi SSE 6.9 mph - N/A   Mostly Cloudy
11:53 PM 66.0 °F 64.0 °F 93% 30.06 in 8.0 mi SSE 5.8 mph - N/A   Mostly Cloudy